Date,TemperatureHighF,TemperatureAvgF,TemperatureLowF,DewpointHighF,DewpointAvgF,DewpointLowF,HumidityHigh,HumidityAvg,HumidityLow,PressureMaxIn,PressureMinIn,WindSpeedMaxMPH,WindSpeedAvgMPH,GustSpeedMaxMPH,PrecipitationSumIn
2013-5-1,70.7,52.4,36.0,45.2,36.3,26.3,72,56,37,30.36,30.28,12,2,12,0.00
2013-5-2,79.9,61.1,39.8,47.8,40.8,30.8,71,50,26,30.28,30.10,12,2,12,0.00
2013-5-3,80.3,62.5,43.9,53.8,43.4,32.7,70,51,35,30.16,29.98,13,2,13,0.00
2013-5-4,84.1,66.5,45.7,53.2,42.3,35.5,69,45,19,29.99,29.73,16,3,16,0.00
2013-5-5,86.2,72.3,55.8,52.7,43.3,35.2,67,36,25,29.75,29.53,17,5,17,0.00
2013-5-6,79.6,62.0,49.1,57.0,47.1,34.6,68,59,39,29.82,29.67,15,4,15,0.00
2013-5-7,73.8,58.9,47.7,57.9,43.5,22.3,67,57,36,29.93,29.81,13,4,13,0.00
2013-5-8,72.5,55.6,49.1,57.3,41.3,27.1,67,59,44,30.02,29.93,9,3,11,0.00
2013-5-9,81.9,63.3,46.8,60.7,46.0,18.3,66,54,29,30.08,29.95,10,2,10,0.00
2013-5-10,83.7,61.1,50.8,63.2,45.5,28.8,66,57,41,30.08,30.00,15,3,16,0.00
2013-5-11,85.9,65.9,50.9,65.3,49.8,28.4,65,56,42,30.09,29.90,13,3,13,0.00
2013-5-12,74.2,63.7,58.1,60.8,48.7,25.3,66,59,32,30.02,29.95,14,3,14,0.00
2013-5-13,67.9,59.0,50.4,52.5,43.0,27.3,69,56,34,30.11,29.95,19,4,19,0.00
2013-5-14,70.7,57.2,43.0,50.9,40.1,9.5,67,54,27,30.11,29.97,9,2,9,0.00
2013-5-16,63.0,56.5,49.9,51.0,33.3,-1.6,68,46,1,29.89,29.83,12,2,12,0.10
2013-5-17,64.8,54.9,48.4,51.0,40.3,22.6,69,58,35,29.99,29.88,13,2,13,0.01
2013-5-18,63.0,54.3,47.9,51.4,36.4,15.5,67,52,24,30.15,29.98,10,2,12,0.05
2013-5-19,68.2,58.3,49.3,54.1,40.2,1.3,68,54,12,30.27,30.15,8,2,10,0.00
2013-5-20,74.9,57.4,42.3,56.1,40.8,3.2,69,55,16,30.20,29.82,10,3,12,0.00
2013-5-21,51.7,47.6,40.7,41.5,25.6,-4.0,68,44,5,29.90,29.74,11,3,15,0.53
2013-5-22,53.5,46.8,41.0,42.7,20.8,-8.7,68,39,11,29.89,29.83,12,4,12,0.11
2013-5-23,56.0,50.0,45.7,45.5,24.6,-0.3,69,40,16,29.92,29.87,14,4,14,0.15
2013-5-24,59.8,52.1,47.0,48.1,28.6,-6.0,69,47,10,29.97,29.88,16,3,16,0.03
2013-5-25,69.7,55.1,42.5,54.6,34.6,-10.3,67,49,3,29.97,29.82,9,2,9,0.07
2013-5-26,63.9,56.1,51.5,51.6,30.9,-3.5,68,45,1,29.94,29.83,17,4,17,0.09
2013-5-27,64.8,55.9,50.8,53.0,27.7,-7.0,67,39,1,29.87,29.64,18,5,18,0.31
2013-5-28,61.9,56.2,51.5,50.2,31.9,-3.3,68,46,1,29.84,29.64,19,4,19,0.19
2013-5-29,63.4,54.6,49.9,51.1,24.0,-3.8,67,36,1,29.97,29.53,19,5,19,0.29
2013-5-30,64.1,55.1,48.1,51.2,33.9,-5.9,68,50,8,30.13,29.96,12,2,12,0.03
2013-5-31,70.9,58.9,45.4,54.7,44.0,15.6,68,58,28,30.20,30.09,9,2,9,0.00